Zurück zum Katalog

STARLINK-31446

AktivKommunikationVLEO
NORAD 59315·PAYLOAD·🇺🇸 United States

Gestartet Mar 24, 2024 von Cape Canaveral Space Force Station

Loading…

Nächste Überflüge (nächste 24 Stunden)

TLE

AktuellSource: CelesTrak SupGP

Epoche: Sep 14, 2026, 13:47 UTC

1 59315C 24056V   26257.57479167 -.00007017  00000+0 -25411-3 0  2577
2 59315  43.0013 243.7101 0001607 276.8633 134.0373 15.27586607    12

Verfolge STARLINK-31446 in Echtzeit mit AllMySat

Download on the App Store